Theta_e
327 326 326 326 326 325 325 325 325 325 325 326 325 325 324 322 320 315 314 315 314 312 308 304 302 302 306 301 302 307 312 312 312 312 311 310 309 308 309 308 307 309 310 309 309 307 307
326 325 325 325 325 326 326 327 327 326 326 325 325 324 322 319 315 314 312 310 308 307 305 303 302 304 306 303 305 307 306 309 312 311 311 311 310 309 309 308 308 307 308 307 306 308 307
323 324 324 325 325 326 326 325 326 326 326 325 324 323 321 314 312 310 308 307 306 303 303 302 302 309 310 304 306 307 311 312 313 312 310 311 311 310 309 308 308 309 309 307 308 307 309
319 319 320 320 321 323 323 325 326 326 325 323 323 320 314 309 308 308 308 308 305 303 304 306 305 312 308 309 310 312 313 313 312 312 311 312 311 309 309 308 308 309 307 307 307 307 307
314 316 317 319 320 320 321 322 324 324 323 322 319 312 309 309 309 309 310 310 305 306 312 309 312 313 312 312 312 312 312 312 312 312 312 311 310 307 307 307 305 304 306 309 309 307 308
312 314 316 318 318 319 319 319 318 316 313 310 309 310 310 307 305 305 306 306 306 313 313 314 315 311 311 312 313 313 311 310 310 310 308 309 305 307 304 305 304 306 309 309 309 309 309
310 313 314 313 313 314 314 313 313 311 310 310 311 306 305 304 304 304 303 307 306 306 307 308 309 312 309 310 310 311 311 310 309 309 309 308 310 310 308 307 308 309 309 308 307 306 309
311 312 312 310 310 310 310 311 311 311 311 310 308 305 304 303 303 303 305 308 307 306 307 308 307 308 309 309 310 310 310 308 308 308 307 306 309 309 309 309 309 309 309 308 307 307 309
309 309 309 309 309 310 310 308 308 308 307 306 305 304 303 302 302 304 307 307 307 307 306 306 307 308 308 309 310 310 307 306 307 307 307 306 308 308 309 309 309 308 309 308 308 308 307
310 310 310 310 310 310 310 308 307 307 307 306 304 303 302 301 304 303 307 307 307 307 300 301 303 306 304 307 307 307 306 306 307 306 307 307 308 308 309 308 307 307 307 308 309 308 308
307 308 310 310 310 310 310 310 308 307 307 305 304 303 302 300 302 303 306 307 307 302 306 304 307 308 307 306 308 310 309 306 306 308 308 308 308 309 309 309 308 308 309 309 309 308 307
305 305 306 306 307 309 310 310 309 308 307 306 304 303 302 301 303 303 306 307 303 300 301 302 309 310 311 311 309 309 310 308 307 308 307 306 306 308 307 308 308 308 308 307 306 305 307
302 302 303 304 305 305 307 309 309 309 308 307 305 303 302 300 303 305 306 302 301 299 301 305 309 309 311 309 310 309 310 309 307 308 305 306 306 306 306 307 307 306 306 309 309 310 309
300 300 300 301 302 303 304 305 307 309 310 308 305 303 302 301 301 304 306 302 300 301 300 302 303 309 309 310 310 310 309 309 307 305 305 306 307 306 306 307 307 306 307 310 312 314 311
299 299 298 299 299 301 302 303 304 307 308 309 305 303 302 302 301 303 303 302 301 300 303 304 304 306 308 310 310 311 309 308 308 306 307 307 307 305 305 305 307 309 308 308 311 308 309
298 298 298 299 299 299 300 301 302 304 307 308 304 301 301 302 302 305 304 304 301 303 302 302 303 304 306 308 310 309 309 307 307 305 306 307 306 304 305 304 305 306 306 308 310 315 312
296 296 297 297 297 297 297 298 300 302 305 307 302 301 302 301 303 306 305 303 303 303 303 302 303 303 304 306 306 305 306 304 303 304 302 302 303 303 304 304 304 305 305 307 307 309 309
294 295 295 296 296 297 296 295 296 299 303 304 300 303 301 303 304 302 304 302 304 304 303 303 303 303 303 302 302 303 305 304 302 303 304 305 303 304 303 304 305 306 306 306 309 307 309
295 294 294 294 295 296 297 296 295 296 301 300 300 301 301 302 301 300 300 303 303 303 304 305 303 303 302 302 301 302 302 303 303 304 305 304 303 304 303 302 303 306 306 306 306 306 307
294 294 294 294 294 295 296 297 296 296 297 301 297 302 300 303 299 300 301 302 302 303 302 302 303 302 302 301 300 299 301 302 303 303 306 302 302 303 303 303 303 304 305 305 304 302 303
292 293 294 294 294 294 295 296 296 296 297 300 299 300 302 304 304 302 300 302 303 303 304 304 305 302 301 300 301 301 301 303 302 303 305 303 303 303 303 302 304 304 304 304 304 304 305
293 293 293 293 295 295 295 295 296 295 296 297 298 299 299 303 304 305 303 303 303 304 303 305 303 302 303 303 301 301 302 302 301 304 304 302 304 302 295 302 303 303 303 302 304 305 305
292 292 292 292 293 294 295 295 296 295 295 297 294 295 300 302 303 305 306 304 304 305 304 304 304 305 305 303 301 300 300 300 301 302 304 306 305 305 306 304 305 305 301 305 305 305 305
293 293 292 292 292 292 294 294 294 294 295 297 295 297 299 302 302 304 305 305 305 305 305 304 304 304 304 302 302 302 302 303 304 304 304 305 306 306 305 306 305 302 302 303 303 304 303
292 292 293 292 292 292 292 294 294 294 294 296 296 297 296 300 303 303 303 304 304 304 304 304 303 302 302 304 304 304 304 303 303 304 305 305 305 306 307 306 304 304 302 302 302 303 302
292 292 292 292 292 292 292 292 294 294 294 296 296 297 296 299 301 302 303 303 304 303 302 301 301 301 302 303 305 307 307 304 304 304 304 304 304 306 305 307 304 303 304 306 307 307 304
292 292 293 293 292 293 293 292 292 293 294 295 295 295 297 298 299 302 304 303 302 301 300 299 302 302 300 301 305 307 306 303 304 303 303 306 303 305 306 307 306 303 306 305 307 304 302
292 292 293 293 293 293 293 293 292 293 294 294 295 294 296 298 298 300 301 302 300 300 300 299 299 298 299 304 305 305 304 303 303 302 304 305 305 306 306 307 306 305 306 307 304 305 305
292 292 292 293 293 293 293 293 293 293 294 294 294 294 295 297 297 298 299 300 301 300 298 299 299 298 298 298 298 300 303 302 303 303 304 302 304 304 303 308 305 304 305 304 305 307 306
Wind_Speed
16 17 18 18 19 20 19 18 18 19 19 20 21 19 20 21 22 26 26 27 28 28 30 30 29 27 15 5 8 5 6 10 11 10 6 3 4 3 3 3 6 2 2 4 2 9 6
17 18 20 21 22 22 21 20 20 19 20 19 21 19 19 22 22 25 29 29 30 30 27 27 26 19 3 7 3 8 15 16 11 8 6 2 1 2 2 2 0 4 5 8 5 5 3
14 16 19 21 22 22 20 19 19 19 19 19 20 18 20 19 21 24 26 28 29 29 28 25 17 9 2 13 5 18 17 8 6 7 3 4 2 2 0 5 1 4 6 6 2 5 1
12 12 16 18 21 21 20 19 20 20 18 17 18 16 18 18 20 24 27 30 29 31 23 15 5 2 7 10 11 9 4 2 4 5 6 4 2 2 1 4 6 3 3 4 3 8 4
10 10 11 10 10 10 14 16 16 15 16 14 13 12 14 20 24 27 29 30 29 19 12 5 1 2 9 9 3 5 7 6 10 3 1 4 4 2 4 3 4 6 2 2 7 2 3
7 7 6 6 5 4 4 6 6 5 4 5 8 11 18 21 24 25 28 27 15 6 5 2 0 3 6 3 7 12 17 5 3 2 4 5 5 3 4 4 3 2 3 3 4 4 3
6 5 2 2 4 5 3 2 3 4 5 7 13 15 16 20 22 22 24 9 7 3 6 4 10 6 19 13 15 5 2 7 2 3 3 2 3 6 7 5 1 2 2 6 6 6 3
6 7 8 9 8 7 8 9 9 9 10 10 10 12 17 18 19 15 9 5 5 4 9 12 17 12 22 14 6 3 10 1 2 4 3 4 5 11 2 2 4 4 5 6 7 5 2
9 9 8 7 7 7 6 6 6 6 5 5 8 11 13 17 15 7 7 5 12 6 4 8 4 5 5 8 5 5 6 4 5 4 5 7 5 3 5 3 4 5 4 5 8 3 2
10 11 10 10 9 9 8 7 7 7 6 6 7 11 14 19 2 9 2 14 11 2 4 7 3 5 3 2 3 4 5 3 1 5 5 5 4 4 4 5 7 5 7 5 2 3 3
8 8 11 12 12 11 11 11 10 9 8 7 8 9 11 13 8 4 9 13 11 1 5 3 2 2 1 4 3 1 1 3 4 3 3 6 1 1 2 3 4 5 1 3 2 2 2
5 6 7 8 11 11 13 13 14 13 12 9 7 9 10 8 6 5 12 11 2 5 7 5 3 1 1 1 2 3 1 4 2 2 2 7 1 4 7 4 3 4 3 5 4 3 1
6 7 7 8 9 11 12 14 15 15 15 12 9 9 9 8 4 10 13 3 4 4 3 4 2 2 2 2 2 2 1 1 3 2 3 4 3 3 4 4 2 4 5 3 3 2 5
8 8 9 10 10 11 11 12 14 15 16 15 11 10 10 11 8 7 7 3 4 4 6 4 2 2 4 4 4 2 2 2 3 3 1 2 5 2 2 5 5 6 7 5 5 3 4
9 11 12 12 12 12 12 12 13 14 15 17 13 11 9 12 6 3 3 1 6 4 4 6 7 4 3 4 5 2 4 4 5 8 7 4 5 2 2 1 3 2 3 3 3 2 2
6 6 8 9 12 12 11 11 12 13 14 18 12 4 7 10 8 5 2 7 4 2 5 5 3 3 2 3 3 4 5 2 3 6 3 3 4 3 4 1 2 3 2 2 3 1 4
7 8 8 10 12 15 14 13 11 11 11 17 9 2 5 10 15 2 5 6 4 6 1 3 3 4 4 3 4 3 5 2 0 1 5 4 4 4 0 3 5 3 1 4 3 4 4
8 9 10 10 10 11 12 15 13 10 9 21 7 4 7 26 4 3 8 5 3 4 3 7 3 6 4 3 3 3 4 2 5 2 2 1 5 3 6 3 3 1 4 5 3 4 3
10 11 12 12 12 11 12 12 12 10 7 7 3 2 6 11 6 5 3 4 6 4 4 2 4 4 2 5 3 5 3 1 5 1 0 1 1 2 4 5 3 1 2 3 3 3 5
13 15 14 13 12 13 12 12 11 12 9 8 1 2 3 6 3 7 5 5 6 6 10 11 8 4 2 3 4 3 4 3 2 1 5 2 2 4 5 5 3 4 4 4 4 3 3
14 15 14 14 15 15 14 13 11 11 10 9 3 3 4 3 9 7 8 3 6 5 8 5 5 14 10 4 2 4 4 2 2 2 1 3 4 4 4 6 5 5 6 7 7 9 8
16 16 16 16 15 14 15 15 13 11 9 5 3 2 2 1 4 17 13 12 13 5 4 4 14 16 7 10 9 6 4 4 6 1 4 2 4 3 4 6 8 10 8 9 16 16 15
19 19 19 19 18 17 15 14 14 13 10 4 1 4 1 4 3 7 12 19 14 8 8 11 9 6 7 9 10 13 8 4 4 7 7 5 4 2 4 4 5 11 10 18 8 6 8
21 21 20 21 21 20 18 17 17 16 16 12 5 1 2 3 6 7 8 17 21 16 15 4 4 4 4 5 3 2 3 4 5 5 5 5 4 3 3 2 7 6 3 6 8 10 9
23 23 23 23 23 22 22 19 18 18 18 18 10 6 2 3 5 13 17 14 14 14 14 18 15 11 4 6 3 2 1 2 5 8 9 9 4 2 4 6 11 10 10 4 6 9 11
25 24 25 25 26 25 25 24 19 18 18 18 17 15 3 2 4 10 9 12 4 3 3 6 10 6 6 3 3 5 4 3 3 2 4 3 6 6 2 4 5 6 2 2 1 9 5
26 25 26 27 28 27 26 26 25 21 19 19 14 17 8 3 5 3 5 5 6 4 3 3 4 3 3 2 1 2 3 2 3 4 4 3 1 9 8 7 6 6 9 4 3 6 7
28 25 25 25 26 26 25 24 25 23 21 20 13 20 18 3 6 7 5 3 1 4 4 3 4 2 1 3 2 3 3 4 3 4 3 6 5 4 3 4 7 3 5 3 4 5 6
29 27 24 24 26 25 24 23 23 23 22 20 13 19 19 8 4 8 14 17 15 15 4 3 3 5 5 3 1 1 2 1 4 3 4 4 6 4 7 3 7 3 7 9 6 7 8
Wind_Direction
261 264 268 271 272 274 275 279 282 285 289 292 300 300 305 309 319 320 322 322 322 323 327 330 331 338 350 11 252 303 310 315 336 345 10 22 44 11 353 321 325 191 303 301 265 293 250
256 264 266 267 266 269 273 276 279 283 285 291 288 294 307 310 317 319 320 321 323 320 322 322 322 337 357 325 288 299 314 310 311 318 320 337 7 223 242 298 50 319 290 289 271 249 264
252 257 264 267 267 266 266 273 278 278 275 284 277 291 303 307 314 319 320 324 329 323 319 317 306 338 131 248 299 305 311 300 315 288 265 256 256 105 344 319 21 301 315 324 336 333 326
271 267 270 269 267 267 266 267 269 268 265 272 276 287 300 315 324 324 323 325 328 320 324 312 294 334 244 286 306 321 326 347 326 348 247 250 230 55 126 314 1 15 59 3 298 2 359
279 290 296 287 288 281 275 269 275 269 268 269 273 289 307 321 328 328 323 325 323 319 325 329 356 103 272 312 314 2 348 322 321 332 18 85 82 76 25 71 357 6 243 241 324 84 308
285 303 323 343 337 308 270 272 257 255 264 281 306 316 323 328 330 330 323 328 325 326 355 33 28 329 280 343 317 319 311 308 293 338 25 48 48 39 27 69 240 284 317 294 264 287 353
259 270 254 343 347 345 330 295 270 264 283 307 318 328 336 335 334 333 335 347 12 352 12 308 278 248 281 278 290 312 350 333 83 53 184 37 91 238 231 215 275 317 237 264 277 268 276
255 261 278 299 299 286 285 288 287 284 288 296 310 327 333 338 336 341 2 61 70 268 297 280 251 246 270 288 298 221 273 301 191 203 126 17 229 230 155 204 256 279 283 276 271 258 270
238 246 262 272 286 295 285 289 295 297 301 315 323 329 332 338 333 10 11 37 343 339 270 283 229 235 246 156 219 275 152 178 191 207 184 189 235 133 187 222 230 230 220 239 237 329 335
243 246 245 254 261 263 267 269 280 280 288 298 318 330 336 339 7 348 327 334 337 303 334 280 252 267 170 161 271 221 214 163 170 219 220 235 265 228 262 242 199 245 215 222 188 81 241
255 259 259 256 262 264 264 264 265 261 261 278 303 316 334 343 323 328 321 326 325 185 318 266 211 177 147 187 285 269 313 92 207 187 118 247 210 134 345 226 154 237 120 139 165 198 59
266 274 277 276 270 266 269 266 266 264 261 265 279 303 324 336 322 310 323 327 320 49 251 317 302 198 155 336 295 308 28 47 98 197 230 237 298 211 211 235 179 121 77 48 52 96 280
259 263 272 274 270 271 268 264 261 262 266 265 273 287 304 313 311 328 329 19 39 161 336 262 260 183 223 255 285 181 219 200 172 25 325 316 247 262 174 209 39 94 73 325 334 344 239
273 278 284 286 283 281 280 276 269 260 258 259 259 269 282 284 295 314 335 55 195 222 252 320 287 174 222 162 242 202 179 263 219 127 193 216 321 265 165 175 185 185 167 175 220 215 251
270 278 281 283 286 291 291 284 272 268 256 250 238 252 266 278 260 260 49 214 214 212 296 319 314 225 257 243 203 167 221 210 220 180 182 189 262 291 77 54 148 152 176 224 132 62 350
276 281 283 279 284 281 285 287 285 275 259 248 214 218 243 243 185 149 102 237 251 254 360 349 254 228 268 264 189 177 204 205 229 192 183 236 283 279 304 93 36 157 155 42 50 323 261
283 290 292 286 283 282 284 287 287 279 265 246 195 153 210 177 153 182 223 228 282 277 235 270 303 295 252 279 216 233 228 275 91 299 157 159 142 274 195 209 187 14 25 73 127 155 218
269 280 286 292 293 290 284 282 283 294 298 202 149 228 187 155 168 217 229 203 262 256 290 250 241 245 248 289 286 253 242 244 357 292 213 43 154 200 214 345 336 282 212 161 147 231 235
270 277 280 282 284 288 289 288 278 274 231 164 180 257 193 173 191 208 247 247 232 223 218 266 268 211 215 231 240 222 242 271 1 44 82 197 298 340 347 354 357 253 204 156 111 88 206
278 278 277 275 276 280 278 280 283 267 264 213 204 165 276 207 183 185 173 228 241 214 239 247 261 308 268 274 220 266 228 234 332 76 106 82 152 197 230 218 169 226 208 197 152 133 237
276 279 284 283 278 273 271 270 273 270 254 238 192 254 156 214 210 201 179 229 208 221 221 213 262 231 219 262 263 232 246 266 245 311 74 125 241 200 241 232 219 228 231 229 202 226 216
271 274 277 279 285 271 262 260 264 263 253 242 192 208 241 217 224 207 197 225 233 217 229 233 232 255 264 236 209 224 200 202 219 78 174 139 256 129 290 263 245 253 236 239 241 247 247
267 269 271 273 275 274 273 265 258 257 237 234 240 273 322 172 227 224 213 222 232 205 251 231 251 289 275 264 233 231 202 196 200 177 184 167 175 136 269 220 280 276 215 230 234 214 226
269 264 264 265 267 268 267 263 258 254 239 232 193 275 260 283 215 228 232 225 235 227 238 290 230 205 242 315 118 93 151 205 195 211 179 172 167 165 251 252 251 255 208 222 223 238 222
267 265 262 260 261 261 262 264 257 251 245 234 224 182 225 257 237 241 235 228 240 239 246 252 255 262 59 30 360 172 290 289 232 222 222 209 155 200 239 240 287 298 278 196 182 271 236
266 263 262 259 259 258 256 257 257 256 252 242 241 216 199 250 228 258 246 231 216 199 259 233 245 190 95 112 223 197 186 203 200 216 51 197 207 207 188 239 247 246 292 335 213 290 301
263 263 261 259 258 257 253 249 250 250 249 246 243 231 238 257 250 252 232 213 174 177 237 286 174 88 80 135 237 225 191 194 198 205 187 111 106 208 225 242 271 248 314 272 200 266 318
256 258 262 262 258 256 252 246 243 242 239 239 246 234 216 230 262 265 258 284 295 175 199 212 62 354 99 159 194 197 224 217 204 219 201 194 180 201 183 222 260 179 345 215 218 310 312
252 252 256 260 259 254 248 240 235 234 232 232 236 240 236 233 274 295 272 250 246 259 200 181 188 174 183 121 229 145 191 198 192 249 205 232 194 189 191 215 277 249 211 246 269 267 286